Location: ???????
(55.4362°N, 38.1183°E)
Time: 20:21:08
(UTC+00:00)

USA 267 - Pass Details

Date: 31 October 2021
Orbit: 1101 x 1107 km, 123.0° (Epoch: 27 November)

Event Time Altitude Azimuth Distance (km) Brightness Sun altitude
Rises 14:33:52 0° 111° (ESE) 3,915 5.7 -6.6°
Reaches altitude 10° 14:36:21 10° 112° (ESE) 2,958 5.1 -6.9°
Maximum altitude 14:42:54 83° 201° (SSW) 1,116 3.4 -7.8°
Drops below altitude 10° 14:49:29 10° 290° (WNW) 2,965 6.5 -8.7°
Sets 14:51:58 0° 291° (WNW) 3,924 7.2 -9.1°
